User: anonymous   Login
Location: *
(51.0333°S, 178.4667°E)
Time: 12:11:27
(UTC+00:00)
Language:

STARLINK-68 - Orbit

View from above orbital plane
View from above orbital plane
View from above satellite
View from above satellite

Ground track
Ground track

The orbit data is extracted from the following two-line orbital elements,

1 44279U 19029AW  20023.25001157  .00739958  00000-0  39995-1 0  9992
2 44279  52.9999 152.3758 0001309  72.5299 358.9663 15.11992328 36942
Epoch (UTC): 23 January 2020 06:00:01
Eccentricity: 0.0001309
inclination: 52.9999°
perigee height: 529 km
apogee height: 531 km
right ascension of ascending node: 152.3758°
argument of perigee: 72.5299°
revolutions per day: 15.11992328
mean anomaly at epoch: 358.9663°
orbit number at epoch: 3694

The dashed part of the orbit path shows where the satellite is in the earth's shadow,  

DLR